Location: Campo d�Arietto
(42.4469°N, 9.4813°E)
Time: 16:39:47
(UTC+00:00)

Daily predictions for brighter satellites

Satellite Brightness Start Highest point End
(mag) Time Altitude Azimuth Time Altitude Azimuth Time Altitude Azimuth
Okean 1-7 Rocket 3.7 16:50:23 10° S 16:54:57 87° E 16:59:33 10° N
Cosmos 44 3.4 16:50:56 10° SSW 16:55:42 89° WNW 17:00:49 10° NNE
COSMO-SKYMED 1 3.3 16:52:57 10° NNE 16:56:53 33° E 17:00:48 10° SSE
Landsat 5 4.1 16:54:52 10° N 16:58:38 54° WNW 17:02:22 10° SSW
CZ-2C R/B 3.8 16:54:19 10° SE 16:59:14 36° ENE 17:04:23 10° N
SL-24 R/B 4.4 16:55:47 10° S 17:00:14 82° WSW 17:05:08 10° NNW
ISS -1.8 17:00:18 10° WNW 17:02:56 20° NNW 17:05:32 10° NE
Iridium 4 Rocket 4.3 17:00:19 10° NNE 17:04:51 28° ENE 17:09:04 10° SE
Cosmos 1455 2.1 17:01:43 10° N 17:05:34 74° E 17:09:23 10° SSE
ARGOS 4.5 17:02:59 10° ESE 17:06:28 18° ENE 17:09:58 10° NNE
Cosmos 1328 4.4 17:04:30 10° SSE 17:08:09 35° E 17:11:48 10° NNE
Cosmos 2026 Rocket 4.4 17:04:13 10° SSE 17:09:52 40° E 17:15:36 10° NNE
X-37B 1.0 17:08:50 10° WNW 17:11:57 51° N 17:14:46 12° E
Cosmos 1689 Rocket 3.9 17:12:02 11° ENE 17:13:16 14° E 17:14:51 10° SE
CZ-2D R/B 3.6 17:11:22 10° SE 17:15:00 42° ENE 17:18:38 10° N
Cosmos 1602 Rocket 3.7 17:11:03 10° S 17:15:17 54° E 17:19:34 10° NNE
H-2A R/B 2.7 17:11:46 10° N 17:16:05 59° WNW 17:20:16 10° SSW
CZ-2C R/B 4.2 17:14:10 10° NE 17:17:19 15° E 17:20:28 10° ESE
NOSS 2-1 (E) 3.2 17:16:47 10° SW 17:20:06 66° NW 17:23:32 10° NNE
SJ 16-02 2.9 17:16:49 10° SW 17:20:53 36° WNW 17:24:58 10° N
YAOGAN 1 3.4 17:17:45 10° SE 17:21:24 27° ENE 17:25:05 10° N
Cosmos 405 3.7 17:19:46 10° N 17:22:58 31° ENE 17:26:07 10° SE
Helios 1A Rocket 4.1 17:23:00 10° ESE 17:26:17 23° ENE 17:29:34 10° NNE
Cosmos 1898 Rocket 3.5 17:23:40 10° SSW 17:28:55 87° WNW 17:34:11 10° NNE
Cosmos 1825 Rocket 4.3 17:26:53 10° SSE 17:30:44 31° E 17:34:38 10° NNE
Cosmos 1939 Rocket 3.1 17:26:46 10° S 17:30:52 77° W 17:34:55 10° NNW
Okean O Rocket 2.9 17:28:07 10° S 17:32:21 45° W 17:36:36 10° NNW
Cosmos 372 Rocket 4.5 17:29:56 10° S 17:34:42 39° ESE 17:39:33 10° NE
Cosmos 1680 Rocket 3.8 17:30:22 10° NNW 17:35:35 73° WSW 17:40:46 10° S
Cosmos 1812 Rocket 3.4 17:31:54 10° N 17:36:17 73° E 17:40:36 10° SSE
Feng Yun 1-1 Rocket 4.2 17:31:38 10° SSE 17:37:06 88° ENE 17:42:44 10° NNW
Cosmos 2195 Rocket 4.5 17:30:50 10° S 17:37:08 78° E 17:43:29 10° N
Cosmos 44 Rocket 4.5 17:36:14 10° SSE 17:40:04 24° ESE 17:41:43 20° E
Okean-O 2.8 17:38:00 10° SE 17:42:14 47° ENE 17:46:30 10° N
Cosmos 1833 Rocket 2.8 17:38:00 10° NNW 17:43:29 50° ENE 17:48:55 10° SE
Cosmos 2344 4.4 17:34:18 10° NNW 17:43:39 64° NE 17:56:42 10° SE
SKYMED 2 3.8 17:40:42 10° N 17:45:03 73° WNW 17:49:22 10° SSW
Cosmos 1428 Rocket 4.5 17:39:44 10° S 17:46:01 76° E 17:52:20 10° N
CZ-4B R/B 2.4 17:45:39 10° N 17:48:50 46° WNW 17:51:54 10° SSW
Cosmos 2098 Rocket 4.3 17:43:18 10° S 17:50:36 73° E 17:57:51 10° NNE
Cosmos 1937 Rocket 3.7 17:47:50 10° SSW 17:53:08 75° WNW 17:58:29 10° NNE
Cosmos 1953 Rocket 4.0 17:52:28 10° SSE 17:56:30 38° E 17:58:46 22° NE
MOS 1 Rocket 3.4 17:52:40 10° N 17:56:56 69° WNW 18:01:15 10° SSW
H-2A R/B 1.9 17:52:40 10° SSE 17:57:38 65° ENE 18:02:46 10° N
COSMOS 2406 3.1 17:51:50 10° NNW 17:57:39 75° ENE 18:03:23 10° SSE
CZ-4 R/B 1.2 17:53:42 10° SSE 17:57:45 79° ENE 18:01:45 10° N
Meteor 1-27 4.3 17:52:42 10° N 17:58:08 49° ENE 18:03:30 10° SSE
NOSS 3-1 (C) 4.3 17:51:07 10° NW 17:58:48 77° WSW 18:07:36 10° SSE
Cosmos 2082 Rocket 2.6 17:55:43 10° N 18:01:04 39° ENE 18:03:50 24° ESE
Cosmos 2298 Rocket 4.5 17:57:49 10° SSE 18:02:40 38° ESE 18:04:37 28° ENE
OE (NEXTSAT) 4.4 17:59:25 10° WNW 18:02:51 74° SSW 18:03:58 39° SE
Cosmos 2292 Rocket 3.8 18:06:23 10° S 18:11:26 50° E 18:12:42 37° NE
USA 290 2.0 18:09:06 10° NNW 18:12:18 89° NNE 18:13:04 49° SSE
Meteor 2-19 Rocket 4.5 18:06:55 10° S 18:13:04 86° W 18:19:17 10° N
Cosmos 1346 Rocket 2.9 18:14:20 10° SSW 18:18:15 73° WNW 18:21:32 14° N
CSL-04 Rocket 3.6 18:13:52 10° SSE 18:19:15 67° ENE 18:24:43 10° N
USA 229 DEB 4.1 18:12:17 10° NW 18:19:40 76° WSW 18:27:24 10° SSE
USA 229 4.1 18:12:23 10° NW 18:19:46 77° WSW 18:27:30 10° SSE
ERS-2 3.4 18:20:46 10° N 18:24:12 40° WNW 18:27:35 10° SW
Cosmos 2278 Rocket 2.5 18:20:06 10° SW 18:25:44 66° WNW 18:30:40 14° NNE
SL-08 RB Rocket 3.6 18:28:06 60° ENE 18:28:06 60° ENE 18:32:28 10° N
NOSS 3-1 (A) 4.3 18:27:41 10° NW 18:35:23 73° WSW 18:44:10 10° SSE
Cosmos-2242 4.0 18:31:40 10° NNW 18:35:48 47° W 18:39:56 10° SSW
ISS -1.2 18:38:11 10° NW 18:39:13 15° NNW 18:39:13 15° NNW
ARGOS 3.4 18:40:50 10° S 18:46:10 67° WSW 18:51:32 10° NNW
X-37B 2.8 18:45:31 10° WNW 18:47:04 26° W 18:47:04 26° W
Cosmos 2266 Rocket 3.8 18:42:35 10° S 18:48:49 75° E 18:54:59 10° N
Cosmos 1809 Rocket 4.3 18:44:14 10° S 18:50:20 85° E 18:56:32 10° N
USA 234 4.3 18:50:28 27° NNE 18:51:17 28° NNE 18:56:38 10° NW
CZ-2C R/B 2.8 18:53:40 16° N 18:58:09 76° WNW 19:03:45 10° SSW
Cosmos 2297 4.4 18:59:27 10° SSW 19:03:06 41° S 19:03:06 41° S
Cosmos 44 Rocket 4.4 19:16:32 10° SW 19:20:30 43° W 19:20:30 43° W
Milstar 3 4.5 19:37:54 10° SW 19:42:09 21° S 19:42:09 21° S
Cosmos 2082 Rocket 3.7 19:40:02 10° NW 19:45:01 32° WSW 19:45:48 31° WSW
